Location: Batang Balui
(2.7000°N, 113.7833°E)
Time: 11:30:00
(UTC+00:00)

CZ-4 DEB - Pass Details

Date: 30 November 2023
Orbit: 686 x 830 km, 98.7° (Epoch: 27 February)

Event Time Altitude Azimuth Distance (km) Brightness Sun altitude
Rises 12:54:21 0° 190° (S) 3,266 ? -38.1°
Reaches altitude 10° 12:57:05 10° 203° (SSW) 2,311 ? -38.7°
Enters shadow 12:59:17 20° 225° (SW) 1,713 ? -39.2°
